Regional Weather Roundup
Issued by NWS Grand Forks, ND

Home | Current Version | Previous Version | Graphics & Text | Print | Product List | Glossary On
Versions: 1 2 3 4 5 6 7 8 9 10 11 12 13 14 15 16 17 18 19 20 21 22 23 24 25 26 27 28 29 30 31 32 33 34 35 36 37 38 39 40 41 42 43 44 45 46 47 48 49 50
000
ASUS43 KFGF 230231
RWRFGF
PRAIRIE TO PINES  WEATHER ROUNDUP
NATIONAL WEATHER SERVICE EASTERN NORTH DAKOTA/GRAND FORKS ND
900 PM CDT WED OCT 22 2014

 **SATELLITE DATA USED TO AUGMENT SKY COVER AT AUTOMATED STATIONS**
 *****  WEATHER ACROSS EASTERN NORTH DAKOTA  *****

CITY           SKY/WX    TMP DP  RH WIND       PRES   REMARKS
GRAND FORKS    CLOUDY    51  50  96 S8        29.84S
GRAND FRKS AFB CLOUDY    52  51  99 S8        29.84S
GRAND FRKS NWS   N/A     52 N/A N/A SW7         N/A
DEVILS LAKE    MOCLDY    54  41  62 SW10      29.81S
FARGO          CLOUDY    56  53  90 SW9       29.89S
WAHPETON ARPT  CLOUDY    54  50  87 W6        29.92S
$$

 ***** WEATHER ACROSS CENTRAL AND WESTERN NORTH DAKOTA  *****

CITY           SKY/WX    TMP DP  RH WIND       PRES   REMARKS
BISMARCK       CLEAR     52  37  56 SW7       29.90R
MINOT          CLOUDY    56  42  59 SW5       29.82R
JAMESTOWN      CLEAR     50  46  86 SW7       29.87R
MINOT AFB      MOCLDY    53  44  71 SW5       29.81R
GARRISON         N/A     46  38  73 SW6       29.86R
WILLISTON      CLEAR     49  33  54 W9        29.86R
DICKINSON      CLEAR     45  32  60 W9        29.91R
HETTINGER      CLEAR     42  29  59 NW3       29.96R
$$

 *****  OTHER AIRPORT OBSERVATIONS IN OUR AREA  *****

CITY           SKY/WX    TMP DP  RH WIND       PRES   REMARKS
WALHALLA       FAIR      50  50 100 S7        29.78S
GRAFTON AIRPOR NOT AVBL
VALLEY CITY AR FAIR      48  48 100 S9        29.87F
CANDO          NOT AVBL
CAVALIER APRT  FAIR      52  50  93 S9        29.79S
GWINNER        MOCLDY    52  52 100 SW8       29.92S
SHEYENNE NWR     N/A     53  52  95 SW5       29.95S
ROLLA          NOT AVBL
 ***** THE ABOVE OBSERVATIONS ARE NON NWS ARE NOT QUALITY
       CONTROLLED AND MAY MIS-REPORT RAIN FOR SNOW...
$$

  *****  WEATHER ACROSS NORTHERN MINNESOTA  *****

CITY           SKY/WX    TMP DP  RH WIND       PRES   REMARKS
FLAG ISLAND    CLOUDY    52  46  82 S20       29.83R
WARROAD        RAIN      55  52  88 S8        29.86R
ROSEAU         RAIN      54  48  82 S13       29.84S
HALLOCK        CLOUDY    54  52  94 S9        29.81R
THF RVR FALLS  CLOUDY    54  52  94 S9        29.87R
BAUDETTE       CLOUDY    56  43  61 S10       29.88S
WASKISH        CLOUDY    55  45  67 SE10G18   29.90S
CROOKSTON      CLOUDY    54  52  94 S8        29.87S
STEPHEN NDAWN    N/A     54  54 100 S8          N/A
GREENBUSH NDAW   N/A     54  54 100 S8          N/A
$$
  *****  WEATHER ACROSS CENTRAL AND WEST MINNESOTA  *****

CITY           SKY/WX    TMP DP  RH WIND       PRES   REMARKS
FOSSTON        LGT RAIN  52  52 100 S10       29.90S
BEMIDJI        LGT RAIN  53  47  81 S9        29.92R
PARK RAPIDS    CLOUDY    54  47  77 S10       29.93R
ELBOW LAKE     CLOUDY    56  55  97 W8        29.93R
WADENA         RAIN      52  50  93 S9        29.93S
DETROIT LAKES  CLOUDY    54  54 100 SW6       29.93S
MOORHEAD       MOCLDY    55  55 100 SW5       29.91S
FERGUS FALLS   CLOUDY    55  54  94 SW3       29.93S
MORRIS MN      CLOUDY    57  55  94 SW8       29.94R
STAPLES        DRIZZLE   55  45  67 S10       29.94S
$$
  *****  WEATHER ELSEWHERE ACROSS MINNESOTA  *****

CITY           SKY/WX    TMP DP  RH WIND       PRES   REMARKS
DULUTH         FAIR      52  35  52 S10       30.05S
INTRNTL FALLS  CLOUDY    55  41  59 S7        29.94S
ELY            CLEAR     45  34  65 S5        30.04R
CLOQUET        MOCLDY    50  37  62 SE3       30.04F
WHEATON        CLOUDY    54  52  94 W6        29.95R
BRAINERD       CLOUDY    54  42  64 S10G22    29.98F
HIBBING        CLOUDY    52  37  56 S10       30.02S
ALEXANDRIA     LGT RAIN  54  52  93 S10       29.95R FOG
SAINT CLOUD    PTCLDY    58  42  55 SE15      29.99F
MINNEAPOLIS    CLOUDY    56  40  55 S12       30.05S
$$

  *****  WEATHER ACROSS SOUTH DAKOTA  *****

CITY           SKY/WX    TMP DP  RH WIND       PRES   REMARKS
SIOUX FALLS    CLOUDY    56  55  97 SW3       30.01R
BROOKINGS      NOT AVBL
WATERTOWN      CLOUDY    53  52  96 W9        29.96S
HURON          PTCLDY    52  50  93 SW7       29.98S
SISSETON         N/A     56  53  90 W10       29.92S
ABERDEEN       PTCLDY    50  48  93 S8        29.94S
MITCHELL       PTCLDY    53  52  96 SW6       30.01R
PIERRE         CLEAR     53  39  59 SW7       29.97R
MOBRIDGE       CLEAR     53  38  56 W6        29.92R
RAPID CITY     CLEAR     44  31  60 W5        30.02S
$$

  *****  SOME WEATHER IN NEARBY STATES *****

CITY           SKY/WX    TMP DP  RH WIND       PRES   REMARKS
GLASGOW MT     CLEAR     52  31  44 W3        29.87R
GREAT FALLS MT CLEAR     50  33  52 SW15      29.89R
CHEYENNE WY    CLEAR     51  25  36 SW7       30.16R
SCOTTSBLUFF NE CLEAR     56  25  30 S5        30.08R
OMAHA NE       RAIN      63  61  93 CALM      30.07S FOG
DES MOINES IA  MOCLDY    59  45  59 SE13      30.12S
DAVENPORT IA   CLEAR     45  35  68 SE8       30.24R
CHICAGO IL     CLEAR     42  36  79 SE5       30.26S
EAU CLAIRE WI  CLOUDY    56  36  47 S8        30.13S
LA CROSSE WI   MOCLDY    55  37  50 S8        30.16F
$$

  *****  SOME NATIONAL WEATHER *****

CITY           SKY/WX    TMP DP  RH WIND       PRES   REMARKS
LA GUARDIA NY  LGT RAIN  52  48  86 N20G31    29.74F
RALEIGH NC     PTCLDY    55  41  59 VRB3      30.03R
ATLANTA GA     CLEAR     55  42  61 NW10      30.10S
NEW ORLEANS LA CLEAR     70  56  61 NE5       30.06R
OKLAHOMA CITY  LGT RAIN  64  59  83 CALM      30.12S
ALBUQUERQUE NM PTCLDY    66  40  38 S6        30.16R
SALT LAKE CITY MOCLDY    52  35  52 CALM      30.17R
LOS ANGELES CA PTCLDY    69  65  86 W8        29.92R
BOISE ID       CLOUDY    62  30  29 SE10      29.99F
SEATTLE WA     LGT RAIN  56  52  86 SE15      29.57F
$$

*** WEATHER ACROSS MANITOBA...SASKATCHEWAN AND ONTARIO ***
                ***ONTARIO***

CITY           SKY/WX    TMP DP  RH WIND       PRES   REMARKS
GERALDTON      PTCLDY    36  34  93 S7        30.13F
THUNDER BAY    MOCLDY    41  39  93 NE6       30.12F
SIOUX LOOKOUT  PTCLDY    52  39  62 S12G21    29.92S
TORONTO        MOCLDY    48  41  76 N16       30.24S
BIG TROUT LK   MOCLDY    50  43  76 S8        29.83F
PICKLE LAKE    MOCLDY    50  34  53 S13G21    29.91R THUNDER
DRYDEN         MOCLDY    54  41  62 S15G23    29.90S
KENORA         CLOUDY    57  45  62 S15G25    29.85R
$$
                *** MANITOBA***

CITY           SKY/WX    TMP DP  RH WIND       PRES   REMARKS
BRANDON        PTCLDY    48  45  87 W10       29.73R
DAUPHIN        PTCLDY    54  48  82 W14       29.66R
ISLAND LAKE    NOT AVBL
PILOT MOUND      N/A     54  45  71 SW10        N/A
THE PAS        PTCLDY    48  45  87 N6        29.65S
THOMPSON       CLOUDY    46  46 100 NE3       29.70S
WINNIPEG       CLOUDY    54  52  94 S13       29.75F
LYNN LAKE      CLOUDY    41  39  93 NE10      29.77R FOG
CHURCHILL      LGT RAIN  37  37 100 NE13      29.87R
GILLAM         LGT RAIN  41  39  93 NE9       29.77R
$$
                ***SASKATCHEWAN***

CITY           SKY/WX    TMP DP  RH WIND       PRES   REMARKS
ESTEVAN        PTCLDY    46  43  87 SW8       29.81R
KINDERSLEY     MOCLDY    43  36  75 SE10      29.73S
LLOYDMINSTER   MOCLDY    46  32  57 SE8       29.68F
PRINCE ALBERT  CLOUDY    46  45  93 W7        29.73R
REGINA         CLOUDY    46  45  93 SW5       29.79R
YORKTON        CLOUDY    50  45  81 W12G18    29.72R
N. BATTLEFORD  CLEAR     43  36  75 E7        29.75F
LA RONGE       PTCLDY    43  43 100 NE6       29.73R
SASKATOON      CLEAR     37  34  87 CALM      29.76S
SWIFT CURRENT  CLEAR     43  34  70 SW9       29.79S
$$
NOTE: THESE ARE AUTOMATED STATIONS WITH LIMITED QUALITY CONTROL
      "FAIR" INDICATES FEW OR NO CLOUDS BELOW 12,000 FEET WITH NO
      SIGNIFICANT WEATHER AND/OR OBSTRUCTIONS TO VISIBILITY.
      SKY/WX - SKY CONDITION AND SIGNIFICANT WEATHER.
      TMP - AIR TEMPERATURE.    DP   - DEWPOINT TEMPERATURE.
      RH  - RELATIVE HUMIDITY.  PRES - PRESSURE.
      HX  - HEAT INDEX.         WCI  - WIND CHILL INDEX.
$



USA.gov is the U.S. government's official web portal to all federal, state and local government web resources and services.